Time,TemperatureF,DewpointF,PressureIn,WindDirection,WindDirectionDegrees,WindSpeedMPH,WindSpeedGustMPH,Humidity,HourlyPrecipIn,Conditions,Clouds,dailyrainin,SoftwareType,DateUTC
2013-12-17 00:07:00,37.2,34.3,29.66,SW,225,8.3,-999.0,89,-99.99,,,0.00,Acu-Link.com,2013-12-17 05:07:00,
2013-12-17 00:22:00,37.0,34.1,29.65,SW,225,6.8,-999.0,89,-99.99,,,0.00,Acu-Link.com,2013-12-17 05:22:00,
2013-12-17 00:37:00,37.0,34.3,29.65,SW,225,7.8,-999.0,90,-99.99,,,0.00,Acu-Link.com,2013-12-17 05:37:00,
2013-12-17 00:52:00,38.3,35.1,29.64,SSW,202,9.4,-999.0,88,-99.99,,,0.00,Acu-Link.com,2013-12-17 05:52:00,
2013-12-17 01:08:00,38.8,35.6,29.63,SW,225,9.9,-999.0,88,-99.99,,,0.00,Acu-Link.com,2013-12-17 06:08:00,
2013-12-17 01:23:00,39.6,36.1,29.63,SW,225,13.0,-999.0,87,-99.99,,,0.00,Acu-Link.com,2013-12-17 06:23:00,
2013-12-17 01:38:00,39.9,36.1,29.63,SW,225,12.5,-999.0,86,-99.99,,,0.00,Acu-Link.com,2013-12-17 06:38:00,
2013-12-17 01:53:00,39.9,35.8,29.62,SW,225,12.5,-999.0,85,-99.99,,,0.00,Acu-Link.com,2013-12-17 06:53:00,
2013-12-17 02:08:00,39.9,36.1,29.62,SW,225,9.4,-999.0,86,-99.99,,,0.00,Acu-Link.com,2013-12-17 07:08:00,
2013-12-17 02:24:00,40.3,36.2,29.62,SW,225,11.4,-999.0,85,-99.99,,,0.00,Acu-Link.com,2013-12-17 07:24:00,
2013-12-17 02:39:00,41.0,36.2,29.62,WSW,247,13.0,-999.0,83,-99.99,,,0.00,Acu-Link.com,2013-12-17 07:39:00,
2013-12-17 02:54:00,41.2,36.4,29.62,SW,225,11.9,-999.0,83,-99.99,,,0.00,Acu-Link.com,2013-12-17 07:54:00,
2013-12-17 03:09:00,41.7,36.6,29.62,SSE,157,12.5,-999.0,82,-99.99,,,0.00,Acu-Link.com,2013-12-17 08:09:00,
2013-12-17 03:25:00,41.7,36.6,29.63,SSW,202,12.5,-999.0,82,-99.99,,,0.00,Acu-Link.com,2013-12-17 08:25:00,
2013-12-17 03:40:00,41.5,36.7,29.63,SW,225,9.9,-999.0,83,-99.99,,,0.00,Acu-Link.com,2013-12-17 08:40:00,
2013-12-17 03:55:00,41.5,36.7,29.63,SW,225,10.4,-999.0,83,-99.99,,,0.00,Acu-Link.com,2013-12-17 08:55:00,
2013-12-17 04:10:00,41.4,36.6,29.63,SW,225,9.9,-999.0,83,-99.99,,,0.00,Acu-Link.com,2013-12-17 09:10:00,
2013-12-17 04:25:00,41.2,36.7,29.63,WSW,247,9.4,-999.0,84,-99.99,,,0.00,Acu-Link.com,2013-12-17 09:25:00,
2013-12-17 04:41:00,41.0,36.5,29.62,SSW,202,9.9,-999.0,84,-99.99,,,0.00,Acu-Link.com,2013-12-17 09:41:00,
2013-12-17 04:56:00,41.2,36.7,29.62,SSE,157,9.9,-999.0,84,-99.99,,,0.00,Acu-Link.com,2013-12-17 09:56:00,
2013-12-17 05:11:00,41.2,36.7,29.62,SW,225,10.4,-999.0,84,-99.99,,,0.00,Acu-Link.com,2013-12-17 10:11:00,
2013-12-17 05:26:00,40.8,36.6,29.63,WSW,247,6.3,-999.0,85,-99.99,,,0.00,Acu-Link.com,2013-12-17 10:26:00,
2013-12-17 05:42:00,40.8,36.6,29.63,SW,225,8.9,-999.0,85,-99.99,,,0.00,Acu-Link.com,2013-12-17 10:42:00,
2013-12-17 05:57:00,40.6,36.7,29.63,SW,225,5.3,-999.0,86,-99.99,,,0.00,Acu-Link.com,2013-12-17 10:57:00,
2013-12-17 06:12:00,40.5,36.6,29.65,SW,225,6.3,-999.0,86,-99.99,,,0.00,Acu-Link.com,2013-12-17 11:12:00,
2013-12-17 06:27:00,40.6,36.7,29.64,SW,225,6.8,-999.0,86,-99.99,,,0.00,Acu-Link.com,2013-12-17 11:27:00,
2013-12-17 06:42:00,40.6,36.7,29.65,SW,225,5.8,-999.0,86,-99.99,,,0.00,Acu-Link.com,2013-12-17 11:42:00,
2013-12-17 06:58:00,40.6,37.0,29.66,SW,225,5.3,-999.0,87,-99.99,,,0.00,Acu-Link.com,2013-12-17 11:58:00,
2013-12-17 07:13:00,40.8,37.2,29.66,WSW,247,6.3,-999.0,87,-99.99,,,0.00,Acu-Link.com,2013-12-17 12:13:00,
2013-12-17 07:28:00,41.0,37.4,29.68,WSW,247,8.3,-999.0,87,-99.99,,,0.00,Acu-Link.com,2013-12-17 12:28:00,
2013-12-17 07:44:00,41.0,37.7,29.69,West,270,5.3,-999.0,88,-99.99,,,0.00,Acu-Link.com,2013-12-17 12:44:00,
2013-12-17 07:59:00,40.6,37.3,29.69,West,270,7.3,-999.0,88,-99.99,,,0.00,Acu-Link.com,2013-12-17 12:59:00,
2013-12-17 08:14:00,40.1,37.1,29.69,WSW,247,6.8,-999.0,89,-99.99,,,0.00,Acu-Link.com,2013-12-17 13:14:00,
2013-12-17 08:29:00,39.4,37.3,29.68,West,270,4.2,-999.0,92,-99.99,,,0.00,Acu-Link.com,2013-12-17 13:29:00,
2013-12-17 08:44:00,38.7,36.9,29.68,WSW,247,4.2,-999.0,93,-99.99,,,0.00,Acu-Link.com,2013-12-17 13:44:00,
2013-12-17 09:00:00,38.3,36.7,29.68,SSW,202,6.8,-999.0,94,-99.99,,,0.01,Acu-Link.com,2013-12-17 14:00:00,
2013-12-17 09:15:00,38.1,36.8,29.70,West,270,4.2,-999.0,95,-99.99,,,0.01,Acu-Link.com,2013-12-17 14:15:00,
2013-12-17 09:30:00,38.1,36.8,29.69,West,270,2.7,-999.0,95,-99.99,,,0.01,Acu-Link.com,2013-12-17 14:30:00,
2013-12-17 09:45:00,38.1,36.8,29.69,West,270,2.7,-999.0,95,-99.99,,,0.01,Acu-Link.com,2013-12-17 14:45:00,
2013-12-17 10:00:00,38.1,36.8,29.70,NNW,337,5.8,-999.0,95,-99.99,,,0.01,Acu-Link.com,2013-12-17 15:00:00,
2013-12-17 10:16:00,37.8,36.2,29.69,NW,315,6.3,-999.0,94,-99.99,,,0.01,Acu-Link.com,2013-12-17 15:16:00,
2013-12-17 10:31:00,37.2,35.6,29.70,West,270,5.8,-999.0,94,-99.99,,,0.01,Acu-Link.com,2013-12-17 15:31:00,
2013-12-17 10:46:00,37.0,35.4,29.70,West,270,5.8,-999.0,94,-99.99,,,0.01,Acu-Link.com,2013-12-17 15:46:00,
2013-12-17 11:01:00,37.2,35.6,29.69,West,270,5.3,-999.0,94,-99.99,,,0.01,Acu-Link.com,2013-12-17 16:01:00,
2013-12-17 11:16:00,37.4,35.8,29.69,West,270,6.3,-999.0,94,-99.99,,,0.01,Acu-Link.com,2013-12-17 16:16:00,
2013-12-17 11:32:00,37.4,35.8,29.68,SW,225,3.7,-999.0,94,-99.99,,,0.01,Acu-Link.com,2013-12-17 16:32:00,
2013-12-17 11:47:00,38.1,36.3,29.68,ESE,112,5.3,-999.0,93,-99.99,,,0.01,Acu-Link.com,2013-12-17 16:47:00,
2013-12-17 12:02:00,38.3,36.2,29.66,WSW,247,6.3,-999.0,92,-99.99,,,0.01,Acu-Link.com,2013-12-17 17:02:00,
2013-12-17 12:17:00,38.5,36.7,29.64,SW,225,6.8,-999.0,93,-99.99,,,0.01,Acu-Link.com,2013-12-17 17:17:00,
2013-12-17 12:33:00,38.8,36.7,29.64,SW,225,5.8,-999.0,92,-99.99,,,0.01,Acu-Link.com,2013-12-17 17:33:00,
2013-12-17 12:48:00,39.4,37.3,29.63,West,270,5.3,-999.0,92,-99.99,,,0.01,Acu-Link.com,2013-12-17 17:48:00,
2013-12-17 13:03:00,39.0,36.9,29.62,West,270,2.7,-999.0,92,-99.99,,,0.01,Acu-Link.com,2013-12-17 18:03:00,
2013-12-17 13:18:00,39.0,36.9,29.62,West,270,3.2,-999.0,92,-99.99,,,0.01,Acu-Link.com,2013-12-17 18:18:00,
2013-12-17 13:33:00,39.0,36.9,29.61,WSW,247,4.7,-999.0,92,-99.99,,,0.01,Acu-Link.com,2013-12-17 18:33:00,
2013-12-17 13:49:00,38.3,36.2,29.62,West,270,5.3,-999.0,92,-99.99,,,0.01,Acu-Link.com,2013-12-17 18:49:00,
2013-12-17 14:04:00,38.3,36.2,29.61,WSW,247,5.3,-999.0,92,-99.99,,,0.01,Acu-Link.com,2013-12-17 19:04:00,
2013-12-17 14:19:00,38.1,36.0,29.61,West,270,9.9,-999.0,92,-99.99,,,0.01,Acu-Link.com,2013-12-17 19:19:00,
2013-12-17 14:34:00,38.3,36.2,29.61,West,270,3.2,-999.0,92,-99.99,,,0.01,Acu-Link.com,2013-12-17 19:34:00,
2013-12-17 14:49:00,37.8,35.7,29.62,East,90,5.3,-999.0,92,-99.99,,,0.01,Acu-Link.com,2013-12-17 19:49:00,
2013-12-17 15:05:00,37.4,35.3,29.63,West,270,6.3,-999.0,92,-99.99,,,0.01,Acu-Link.com,2013-12-17 20:05:00,
2013-12-17 15:20:00,37.0,34.9,29.62,West,270,6.3,-999.0,92,-99.99,,,0.01,Acu-Link.com,2013-12-17 20:20:00,
2013-12-17 15:35:00,37.2,34.8,29.63,NW,315,4.7,-999.0,91,-99.99,,,0.01,Acu-Link.com,2013-12-17 20:35:00,
2013-12-17 15:50:00,36.7,34.3,29.64,West,270,2.7,-999.0,91,-99.99,,,0.01,Acu-Link.com,2013-12-17 20:50:00,
2013-12-17 16:06:00,36.5,34.1,29.66,WSW,247,9.4,-999.0,91,-99.99,,,0.01,Acu-Link.com,2013-12-17 21:06:00,
2013-12-17 16:21:00,36.1,33.7,29.66,West,270,6.3,-999.0,91,-99.99,,,0.01,Acu-Link.com,2013-12-17 21:21:00,
2013-12-17 16:36:00,36.0,33.6,29.68,West,270,6.3,-999.0,91,-99.99,,,0.01,Acu-Link.com,2013-12-17 21:36:00,
2013-12-17 16:51:00,35.4,32.8,29.68,West,270,10.9,-999.0,90,-99.99,,,0.01,Acu-Link.com,2013-12-17 21:51:00,
2013-12-17 17:06:00,35.2,32.6,29.69,West,270,7.3,-999.0,90,-99.99,,,0.01,Acu-Link.com,2013-12-17 22:06:00,
2013-12-17 17:22:00,34.3,31.7,29.69,WSW,247,4.7,-999.0,90,-99.99,,,0.01,Acu-Link.com,2013-12-17 22:22:00,
2013-12-17 17:37:00,33.3,30.1,29.70,WSW,247,11.4,-999.0,88,-99.99,,,0.01,Acu-Link.com,2013-12-17 22:37:00,
2013-12-17 17:52:00,32.4,28.4,29.71,West,270,8.3,-999.0,85,-99.99,,,0.01,Acu-Link.com,2013-12-17 22:52:00,
2013-12-17 18:07:00,32.0,28.3,29.72,West,270,9.9,-999.0,86,-99.99,,,0.01,Acu-Link.com,2013-12-17 23:07:00,
2013-12-17 18:22:00,31.8,28.4,29.73,West,270,7.3,-999.0,87,-99.99,,,0.01,Acu-Link.com,2013-12-17 23:22:00,
2013-12-17 18:38:00,31.1,28.2,29.73,WSW,247,9.9,-999.0,89,-99.99,,,0.01,Acu-Link.com,2013-12-17 23:38:00,
2013-12-17 18:53:00,30.7,28.1,29.73,West,270,5.8,-999.0,90,-99.99,,,0.01,Acu-Link.com,2013-12-17 23:53:00,
2013-12-17 19:08:00,30.0,27.7,29.73,WSW,247,5.8,-999.0,91,-99.99,,,0.01,Acu-Link.com,2013-12-18 00:08:00,
2013-12-17 19:24:00,30.0,27.7,29.74,WSW,247,5.3,-999.0,91,-99.99,,,0.01,Acu-Link.com,2013-12-18 00:24:00,
2013-12-17 19:39:00,29.8,27.5,29.74,WSW,247,4.2,-999.0,91,-99.99,,,0.01,Acu-Link.com,2013-12-18 00:39:00,
2013-12-17 19:54:00,29.7,27.4,29.75,West,270,5.3,-999.0,91,-99.99,,,0.01,Acu-Link.com,2013-12-18 00:54:00,
2013-12-17 20:09:00,30.0,27.7,29.76,West,270,10.4,-999.0,91,-99.99,,,0.01,Acu-Link.com,2013-12-18 01:09:00,
2013-12-17 20:24:00,30.4,28.1,29.77,West,270,6.3,-999.0,91,-99.99,,,0.01,Acu-Link.com,2013-12-18 01:24:00,
2013-12-17 20:40:00,30.4,27.8,29.77,WSW,247,7.3,-999.0,90,-99.99,,,0.01,Acu-Link.com,2013-12-18 01:40:00,
2013-12-17 20:55:00,30.6,27.5,29.78,West,270,7.8,-999.0,88,-99.99,,,0.01,Acu-Link.com,2013-12-18 01:55:00,
2013-12-17 21:10:00,30.4,27.3,29.78,West,270,7.3,-999.0,88,-99.99,,,0.01,Acu-Link.com,2013-12-18 02:10:00,
2013-12-17 21:25:00,30.2,27.4,29.80,WSW,247,8.9,-999.0,89,-99.99,,,0.01,Acu-Link.com,2013-12-18 02:25:00,
2013-12-17 21:41:00,30.2,27.4,29.80,WSW,247,6.3,-999.0,89,-99.99,,,0.01,Acu-Link.com,2013-12-18 02:41:00,
2013-12-17 21:56:00,30.4,27.6,29.80,WSW,247,5.8,-999.0,89,-99.99,,,0.01,Acu-Link.com,2013-12-18 02:56:00,
2013-12-17 22:11:00,30.4,27.6,29.81,West,270,7.8,-999.0,89,-99.99,,,0.01,Acu-Link.com,2013-12-18 03:11:00,
2013-12-17 22:26:00,30.4,27.6,29.82,SW,225,3.7,-999.0,89,-99.99,,,0.01,Acu-Link.com,2013-12-18 03:26:00,
2013-12-17 22:41:00,30.4,27.3,29.82,West,270,9.4,-999.0,88,-99.99,,,0.01,Acu-Link.com,2013-12-18 03:41:00,
2013-12-17 22:57:00,30.4,27.3,29.83,West,270,7.3,-999.0,88,-99.99,,,0.01,Acu-Link.com,2013-12-18 03:57:00,
2013-12-17 23:12:00,30.4,26.7,29.84,WSW,247,14.0,-999.0,86,-99.99,,,0.01,Acu-Link.com,2013-12-18 04:12:00,
2013-12-17 23:27:00,30.2,25.4,29.84,WSW,247,9.4,-999.0,82,-99.99,,,0.01,Acu-Link.com,2013-12-18 04:27:00,
2013-12-17 23:43:00,30.0,25.5,29.84,West,270,7.8,-999.0,83,-99.99,,,0.01,Acu-Link.com,2013-12-18 04:43:00,
2013-12-17 23:58:00,29.8,25.3,29.84,East,90,3.7,-999.0,83,-99.99,,,0.01,Acu-Link.com,2013-12-18 04:58:00,